Retour au catalogue

DISKSAT A

ActifScienceVLEO
NORAD 67222·PAYLOAD·🇺🇸 United States

Lancé Dec 18, 2025 depuis Wallops Flight Facility

Loading…

Prochains Passages (prochaines 24 heures)

TLE

FraisSource: Space-Track

Époque: Sep 13, 2026, 21:48 UTC

1 67222U 25305D   26256.90885559  .00003076  00000-0  19897-3 0  9997
2 67222  45.0048 331.7523 0007107 304.6453  55.3753 15.10430844 40727

Suivez DISKSAT A en temps réel avec AllMySat

Download on the App Store